CAPE
1096 1007 1136 1337 1394 1344 1280 1207 1262 1448 1581 1640 1715 1773 1809 1914 2044 2049 1976 1904 1901 1881 1825 1836 1991 2109 2223 2240 2209 2268 2504 2688 2830 2944 3046 3192 3304 3289 3040 2785 2714 2760 2835 2944 3058 3127 3010 2852 2742 2817 2852 2856 2565 1657 1387 1379 1462 1489 1439 1383 1700 2296 1741 1465 1342 1326 1318 1399 1440 1918 2279 2183 2570 2655 2948 3036 3220 3504 3634 3639 3569 3440 3277 3136 3019
1327 1346 1253 1360 1548 1540 1507 1429 1370 1412 1495 1582 1668 1778 1831 1864 1980 2084 2119 2108 2024 1970 1947 1947 1780 1870 2026 2157 2201 2276 2400 2578 2728 2878 2983 3045 3085 3089 2985 2750 2764 2739 2764 2808 2897 2942 3059 3042 3056 3097 3004 2872 2610 2177 1774 1745 1754 1845 1866 1732 1724 1923 1805 1755 1624 1448 1340 1196 1362 1474 1812 2666 2650 2779 2884 2980 3153 3409 3526 3482 3411 3350 3311 3220 3095
1740 1666 1634 1444 1508 1644 1669 1640 1540 1491 1478 1487 1528 1584 1704 1782 1784 1811 1899 1971 2042 2083 2127 2112 2053 2018 1947 2030 2120 2192 2349 2506 2690 2832 2921 2953 2961 2979 2969 2847 2751 2864 2934 2782 2732 2812 2846 2871 2928 2960 2860 2753 2574 2096 2105 2211 2263 2193 2074 2006 1954 2086 2052 1969 1772 1676 1567 1468 1315 1410 1715 2244 2276 2478 2816 2950 3179 3406 3375 3216 3143 3244 3264 3268 3292
1843 1883 1880 1787 1598 1635 1720 1742 1727 1640 1545 1487 1451 1440 1435 1475 1549 1609 1643 1640 1642 1754 1912 2059 2117 2120 2091 1912 1962 2042 2149 2298 2450 2653 2776 2856 2894 2865 2904 2996 3014 3052 3052 2950 2867 2808 2766 2742 2784 2792 2788 2786 2727 2572 2404 2521 2501 2489 2488 2454 2247 1996 2041 1931 1800 1681 1644 1558 1416 1255 1351 1733 2174 2687 2856 3028 3327 3216 2934 2942 3055 3312 3484 3484 3439
1856 1983 1969 1957 1853 1760 1801 1822 1817 1803 1701 1606 1558 1496 1421 1360 1339 1367 1395 1398 1316 1425 1567 1712 1864 1942 1976 1817 1888 1969 2091 2182 2275 2382 2512 2631 2730 2758 2717 2771 2920 3021 3078 3068 3194 2939 2817 2719 2696 2700 2799 2805 2758 2694 2572 2671 2714 2692 2642 2637 2645 2462 2138 2066 1977 1801 1670 1632 1576 1479 1551 2097 2542 2750 3081 3290 3050 2739 2764 2896 3109 3220 3299 3302 3378
1652 1952 2050 2026 1954 1881 1843 1865 1888 1882 1849 1791 1739 1702 1644 1536 1444 1389 1400 1447 1379 1168 1241 1447 1660 1754 1802 1856 1910 1977 2068 2173 2251 2286 2319 2373 2481 2566 2567 2549 2576 2691 2844 2915 2883 2846 2850 2835 2738 2712 2743 2791 2773 2670 2615 2632 2668 2682 2689 2676 2562 2424 2281 2177 2184 2120 1876 1703 1651 1690 1721 1982 1884 2010 2250 2628 2639 2698 2776 2956 3032 3115 2994 2841 2749
1446 1771 2036 2095 2036 1931 1891 1887 1910 1912 1898 1883 1903 1886 1825 1772 1687 1600 1593 1608 1544 1235 1002 1106 1460 1671 1769 1856 1957 2029 2083 2160 2200 2164 2158 2181 2245 2313 2356 2400 2455 2475 2484 2511 2562 2666 2780 2822 2823 2803 2768 2777 2733 2586 2498 2459 2424 2425 2436 2442 2450 2360 2219 2177 2188 2198 2084 1888 1798 1817 1833 1879 1872 1971 2114 2469 2852 2960 2988 2993 2890 2767 2547 2342 2382
1593 1682 1888 2074 2128 2133 2051 1997 1959 1961 1932 1888 1866 1871 1878 1834 1754 1628 1476 1456 1427 1262 990 922 1069 1420 1657 1782 1897 1977 2054 2098 2071 1999 1962 2006 2069 2140 2202 2261 2324 2389 2405 2348 2340 2501 2635 2714 2766 2793 2791 2804 2730 2601 2528 2536 2478 2368 2269 2236 2276 2272 2214 2139 2090 2096 2151 2051 1907 1895 1872 1870 1925 2145 2319 2474 2553 2396 2540 2700 2655 2534 2437 2342 2302
1331 1544 1811 1904 2026 2145 2180 2046 1916 1910 1923 1856 1830 1851 1827 1780 1706 1550 1394 1290 1114 948 831 804 844 1048 1349 1618 1787 1871 1915 1922 1906 1903 1915 1914 1914 1952 2039 2156 2226 2256 2224 2163 2164 2231 2319 2477 2597 2651 2690 3082 2781 2594 2469 2361 2228 2085 2029 2031 2060 2059 2058 2057 2038 2020 2048 2027 2004 1897 1818 1777 1798 1821 1822 1826 1901 1903 2146 2288 2393 2364 2280 2191 2079
976 1124 1400 1670 1911 1995 2015 2072 1986 1826 1787 1826 1815 1871 1854 1810 1689 1562 1374 1245 1123 826 622 620 689 717 970 1246 1493 1672 1759 1786 1821 1860 1866 1840 1801 1774 1786 1905 2067 2134 2092 2054 2097 2111 2108 2110 2120 2764 3199 3521 3118 2584 2378 2339 2606 2280 1957 1815 1723 1712 1758 1791 1812 1820 1817 1837 1862 1862 1841 1766 1662 1602 1608 1677 1718 1924 2021 2048 2044 2061 1987 1976 1869
1281 1246 1375 1388 1657 1872 1868 1824 1809 1785 1717 1470 1411 1660 1839 1858 1786 1684 1483 1306 1149 1011 980 764 660 603 606 831 1072 1248 1366 1473 1574 1662 1712 1729 1677 1623 1608 1622 1696 1817 1894 1949 1899 1853 1854 1876 1874 1875 2602 3554 3561 3135 2674 2283 2000 1916 2303 2428 2235 1732 1586 1531 1568 1586 1587 1584 1608 1656 1701 1707 1698 1646 1607 1591 1636 1724 1826 1880 1920 1937 1894 1772 1635
1090 1015 1013 1007 1297 1584 1628 1524 1514 1551 1415 1154 1179 1470 1680 1776 1808 1787 1623 1384 1236 1010 774 904 814 691 614 557 676 935 1076 1177 1288 1387 1482 1557 1611 1628 1581 1534 1510 1505 1526 1557 1582 1608 1636 1636 1615 1591 1569 1547 1515 1514 1756 2053 2087 1935 1743 1598 1572 1833 2089 1825 1603 1528 1497 1478 1456 1472 1494 1539 1549 1562 1569 1551 1557 1580 1664 1715 1750 1746 1697 1614 1598
996 977 967 1036 1122 1209 1270 1366 1313 1352 1593 1753 1705 1495 1322 1579 1779 1823 1747 1560 1305 1064 832 870 852 766 656 592 574 607 924 1018 1102 1152 1212 1278 1367 1497 1583 1574 1514 1470 1460 1460 1482 1501 1488 1417 1337 1271 1243 1531 1914 1380 1177 1125 1004 1019 1248 1381 1420 1438 1428 1498 1752 1764 1628 1504 1462 1464 1483 1508 1538 1577 1593 1593 1600 1623 1656 1618 1578 1524 1494 1522 1504
870 773 787 912 928 1023 1098 1131 1311 1352 1588 1738 1748 1867 1902 1875 1887 1776 1627 1508 1460 1281 1290 1210 1174 1082 965 793 585 562 579 858 1016 1118 1161 1198 1218 1233 1284 1404 1464 1462 1423 1385 1349 1328 1318 1297 1278 1260 1235 1186 1099 961 908 910 902 861 814 779 754 795 975 1085 1107 1201 1466 1612 1572 1492 1465 1474 1535 1505 1563 1634 1648 1654 1559 1452 1365 1340 1361 1349 1395
830 911 957 933 881 911 1110 1076 1172 1293 1274 1207 1296 1260 1656 1963 2046 2107 2212 2142 2131 2091 2043 1876 1624 1450 1340 1261 1169 1092 1054 1000 982 985 1026 1101 1167 1201 1219 1221 1232 1249 1266 1291 1314 1340 1350 1379 1410 1440 1455 1445 1419 1354 1258 1058 777 264 135 136 192 230 215 279 383 363 392 717 1118 1348 1424 1488 1535 1584 1648 1676 1684 1696 1631 1591 1613 1714 1745 1771 1842
589 603 856 959 898 846 967 971 1077 1012 1109 1137 1265 1212 1190 1216 1253 1346 1583 1724 1651 1591 1851 1770 1620 1539 1505 1429 1410 1367 1238 1142 1112 1123 1113 1069 1042 998 997 1052 1144 1185 1207 1230 1248 1295 1360 1439 1503 1513 1480 1454 1447 1424 1376 1321 1216 1108 943 186 0 0 16 126 129 204 425 394 541 826 1069 1254 1383 1511 1570 1576 1558 1604 1774 2036 1858 1776 1607 1290 976
452 663 698 776 670 624 703 819 870 914 1023 1082 1053 1135 1166 1116 1054 999 1003 980 1082 1289 1451 1438 1564 1463 1407 1488 1589 1580 1522 1368 1249 1189 1112 1103 1153 1204 1198 1164 1088 1038 1009 999 1059 1098 1103 1110 1121 1198 1249 1287 1301 1316 1289 1246 1178 1131 1049 949 816 60 35 18 32 0 0 0 472 530 573 591 605 714 832 877 939 928 833 743 700 655 680 700 785
401 384 451 583 648 621 584 689 674 749 910 926 922 907 924 974 970 1005 1085 1076 1056 1021 990 1122 1429 1348 1155 1126 1417 1461 1682 1630 1498 1451 1485 1526 1512 1475 1482 1461 1475 1488 1502 1497 1466 1423 1404 1409 1505 1356 1346 1329 1298 1252 1160 1072 990 916 908 841 747 647 99 81 166 195 2 0 0 490 561 595 640 770 883 867 807 901 887 865 861 842 907 998 1048
362 378 367 380 405 446 498 551 466 225 382 590 696 758 821 792 743 869 928 1029 1020 962 991 960 1017 1041 1222 1565 1452 1278 1388 1457 1541 1592 1552 1525 1506 1537 1539 1521 1475 1479 1463 1459 1411 1391 1373 1357 1349 1325 1290 1270 1258 1256 1244 1215 1139 1027 913 775 636 560 119 79 103 176 214 170 128 56 656 641 922 1072 1146 1162 1207 1285 1340 1361 1388 1374 1280 1264 1295
313 311 302 284 285 293 320 377 405 429 442 460 542 595 623 607 672 786 868 895 867 827 814 842 859 818 825 943 1051 1211 1311 1360 1338 1312 1232 1183 1128 1099 1166 1249 1336 1352 1334 1325 1308 1296 1273 1241 1222 1183 1155 1112 1073 1050 1020 1007 1023 1047 1008 964 800 659 156 59 134 104 98 188 528 775 873 1014 1169 1229 1321 1407 1384 1314 1227 1415 1455 1436 1393 1390 1381
153 181 199 221 248 261 262 279 332 369 420 444 466 512 519 462 445 465 491 528 500 457 534 658 784 787 766 795 870 943 1034 1214 1291 1230 1174 1182 1074 1067 1038 1101 1126 1126 1155 1171 1173 1170 1203 1203 1208 1209 1238 1267 1255 1229 1184 1138 1095 1038 1026 971 866 739 65 340 409 707 761 866 1042 1248 1381 1450 1419 1436 1501 1608 1660 1627 1548 1492 1422 1391 1324 1249 1170
96 121 128 146 186 213 262 308 330 339 365 395 401 410 414 407 393 364 322 287 272 278 321 336 462 556 598 636 670 770 735 834 915 938 920 886 847 874 1096 1265 1175 1056 956 975 995 1016 1019 1037 1120 1196 1240 1272 1310 1342 1310 1231 1175 1125 1068 1043 1110 1078 958 900 976 1089 1201 1286 1324 1272 1253 1317 1482 1666 1767 1810 1860 1857 1817 1765 1726 1675 1661 1620 1547
0 0 0 0 0 0 0 76 227 261 302 360 371 355 339 330 313 301 274 262 241 242 266 306 398 360 278 306 401 504 523 572 618 675 730 758 816 889 858 1161 1282 1238 1156 1022 890 921 938 953 995 1054 1112 1163 1219 1287 1343 1366 1340 1302 1247 1184 1107 1075 1136 1193 1205 1196 1209 1197 1143 1076 964 953 1218 1581 1797 1876 1920 1928 1952 1946 1893 1845 1784 1766 1734
0 0 0 0 0 0 0 0 0 0 0 48 220 244 273 273 260 262 258 283 262 246 249 246 228 568 590 313 375 338 370 429 528 591 661 711 702 891 1093 1070 904 701 702 668 675 722 778 828 895 954 996 1017 1043 1084 1164 1260 1322 1357 1357 1347 1327 1301 1259 1208 1132 1101 1036 1046 1028 960 890 885 1057 1274 1544 1674 1676 1739 1817 1891 1930 1924 1898 1900 1859
0 0 0 0 0 0 0 0 0 0 0 0 0 0 102 108 108 109 109 132 144 171 173 173 349 333 196 194 196 299 232 365 431 468 492 540 584 723 937 576 537 581 606 595 559 552 561 581 611 684 773 844 864 879 935 1009 1160 1267 1326 1343 1322 1314 1338 1326 1339 1360 1342 1292 1231 1146 1052 959 1014 1224 1365 1381 1348 1355 1437 1584 1722 1789 1794 1792 1794
0 0 0 0 0 0 0 0 0 0 0 0 0 0 0 0 0 0 0 0 0 0 0 0 0 126 0 0 0 0 10 99 164 272 340 388 453 504 504 469 469 464 478 502 494 486 458 427 413 421 504 523 580 637 702 768 827 885 953 1014 1015 956 987 970 1005 1070 1169 1244 1289 1297 1307 1313 1316 1303 1299 1303 1276 1267 1272 1338 1411 1432 1409 1378 1319
0 0 0 0 0 0 0 0 0 0 0 0 0 0 0 0 0 0 0 0 0 0 0 0 0 0 0 0 0 0 0 0 0 16 22 25 61 35 32 49 212 184 156 142 156 205 237 213 276 336 378 371 365 399 414 473 530 566 613 668 724 736 664 541 277 76 89 594 665 909 980 971 961 1015 1146 1177 1227 1267 1256 1223 1212 1257 1253 1205 1072
0 0 0 0 0 0 0 0 0 0 0 0 0 0 0 0 0 0 0 0 0 0 0 0 0 0 0 0 0 0 0 0 0 0 0 0 0 0 0 0 0 0 0 0 0 1 0 0 53 144 163 263 299 285 248 235 150 265 367 392 448 446 434 355 0 0 4 0 0 0 446 501 823 1152 1132 1100 1091 1104 1093 1088 1070 1036 1036 1068 1122
0 0 0 0 0 0 0 0 0 0 0 0 0 0 0 0 0 0 0 0 0 0 0 0 0 0 0 0 0 0 0 0 0 0 0 0 0 0 0 0 0 0 0 0 2 1 0 0 0 0 0 0 4 71 65 0 0 0 0 10 220 207 182 149 198 233 32 282 128 0 520 648 906 1186 1256 1158 1077 1024 989 947 988 1064 1220 1288 1332
4 19 0 0 0 0 0 0 0 0 0 0 0 0 0 0 0 0 0 0 0 0 0 0 0 0 0 0 0 0 0 0 0 0 0 0 0 0 0 0 0 0 0 0 0 0 0 0 0 0 0 0 0 0 0 0 0 0 0 0 0 0 0 19 43 62 2 0 0 513 696 818 907 924 1025 1126 979 731 641 764 851 908 1037 1225 1300
0 0 0 0 0 0 0 0 0 0 0 0 0 0 0 0 0 0 0 0 0 0 0 0 0 0 0 0 0 0 0 0 0 0 0 0 0 0 0 0 0 0 0 0 0 0 0 0 0 0 0 0 0 0 0 0 0 0 0 0 1 0 0 0 0 0 88 310 405 509 613 663 711 730 723 714 740 748 571 698 777 930 1071 1210 1295
0 0 0 0 0 0 0 0 0 0 0 0 0 0 0 0 0 0 0 0 0 0 0 0 0 0 0 0 0 0 0 0 0 0 0 0 0 0 0 0 0 0 0 0 0 0 0 0 0 0 0 0 0 0 0 1 2 4 5 5 7 9 18 12 17 86 258 322 383 409 444 490 506 517 541 575 615 660 749 855 983 1105 1177 1215 1256
0 0 2 1 0 0 0 0 0 0 0 0 0 0 0 0 0 0 0 0 0 0 0 0 0 0 0 0 0 0 0 0 0 0 0 0 0 0 0 0 0 0 0 0 0 0 0 0 0 0 0 0 0 1 2 3 4 3 4 4 4 10 29 78 136 214 302 394 463 548 608 651 695 702 698 689 714 765 843 934 1030 1087 1122 1122 1134
0 1 3 1 0 0 0 0 0 0 0 0 0 0 0 0 0 0 0 0 0 0 0 0 0 0 0 0 0 0 0 0 0 0 0 0 0 0 0 0 0 0 0 0 0 0 0 0 0 0 0 0 1 2 5 5 5 6 7 7 13 32 68 107 179 264 338 428 511 615 714 802 866 928 986 955 884 896 930 964 976 976 994 991 990
0 0 0 0 0 0 0 0 0 0 0 0 0 0 0 1 1 0 0 0 0 0 0 0 0 0 0 0 0 0 0 0 0 0 0 0 0 0 0 0 0 0 0 0 0 0 0 0 0 0 0 1 7 14 22 23 22 22 21 18 16 19 34 63 80 131 228 314 449 536 650 748 797 890 970 1104 1110 1073 1011 976 950 953 965 1022 1009
0 0 0 0 0 0 0 0 0 0 0 0 1 2 4 4 3 2 0 0 0 0 0 0 0 0 0 0 0 0 0 0 0 0 0 0 0 0 0 0 0 0 0 0 0 0 0 0 0 9 15 22 34 47 49 57 55 34 10 14 21 26 28 32 42 72 138 66 132 204 330 471 550 570 627 674 802 826 899 897 857 852 940 1009 1024
0 0 0 0 0 0 0 0 0 0 1 0 0 0 3 6 14 14 13 2 3 1 0 0 0 0 0 0 0 0 0 0 0 0 0 0 0 0 0 0 0 0 0 0 0 0 0 0 14 32 53 57 49 27 20 11 3 2 1 1 2 7 16 18 18 16 14 19 47 145 219 274 188 365 562 674 740 612 560 633 654 684 715 733 725
0 0 0 0 0 0 0 0 0 2 4 7 11 10 14 18 27 22 14 11 14 12 0 0 0 0 0 0 0 0 0 0 0 0 0 0 0 0 0 0 0 0 0 0 0 0 3 26 36 35 34 32 30 20 9 2 2 0 0 0 1 1 1 1 14 12 8 13 11 11 16 23 34 60 152 12 12 21 63 272 440 484 484 648 748
0 0 0 0 2 2 0 4 9 14 15 26 32 31 25 24 23 12 6 4 5 6 12 8 4 1 0 0 0 2 0 0 0 0 0 0 0 0 0 0 0 0 0 0 3 23 23 19 22 28 31 23 15 9 5 3 4 2 1 0 0 0 0 0 0 1 5 8 6 5 6 8 64 80 61 149 265 228 65 88 185 320 481 509 465
0 0 3 0 0 2 8 11 18 19 32 30 9 10 12 9 4 3 5 10 17 26 25 17 8 0 3 8 10 6 1 0 0 0 0 0 0 0 0 0 0 0 0 5 9 13 19 21 20 18 18 18 16 12 9 6 2 0 0 0 0 0 0 0 0 0 0 0 0 0 0 1 3 8 10 12 15 5 56 62 12 22 34 42 36
0 0 0 0 0 0 2 9 14 16 9 3 3 7 4 9 8 17 14 19 20 16 12 10 9 14 22 23 10 0 0 0 0 0 0 0 0 0 0 0 1 4 3 5 8 9 10 10 10 10 8 8 8 7 6 2 0 0 2 1 1 0 3 5 4 1 0 0 1 4 7 10 11 12 6 4 2 1 3 5 6 14 35 7 9
0 0 0 0 0 1 1 1 2 2 2 9 4 8 13 13 21 32 22 20 23 22 20 26 30 34 18 9 0 0 0 0 0 1 4 7 8 7 5 9 13 12 9 4 1 1 1 1 1 1 2 2 2 1 1 1 1 1 1 0 3 8 8 3 0 0 0 1 4 8 11 12 13 13 12 11 15 14 11 6 3 2 2 5 10
0 0 0 0 0 1 0 0 0 0 2 1 3 13 18 27 26 33 28 32 31 31 31 28 24 24 19 10 5 6 10 14 19 27 28 34 25 6 9 9 9 9 7 5 3 2 0 0 0 0 0 0 1 1 1 1 1 1 2 2 2 4 3 6 2 1 2 4 6 5 6 7 10 12 11 11 10 11 11 11 12 18 21 24 27
0 0 0 0 0 0 0 0 1 6 8 10 12 15 12 23 33 30 29 27 32 32 32 34 34 27 25 24 36 45 51 50 45 36 25 22 4 6 7 10 9 11 9 8 8 6 4 3 3 2 1 0 0 0 0 1 1 2 3 4 4 4 3 4 4 4 6 6 5 4 4 4 5 6 6 8 9 9 7 8 8 9 9 10 9
1 3 2 0 0 0 0 10 19 18 16 10 7 3 11 16 12 10 14 28 35 36 33 26 19 20 30 49 50 30 26 24 24 20 16 14 5 4 4 7 9 11 9 10 8 8 9 10 9 9 8 7 4 4 2 2 3 3 3 5 5 4 4 4 4 6 8 9 8 5 3 3 2 2 3 4 6 7 8 6 6 5 4 6 5
6 6 5 4 4 6 8 18 12 8 9 1 3 1 2 2 2 11 27 25 19 19 14 16 24 26 32 33 28 28 22 20 13 14 16 10 8 4 5 5 4 4 5 6 5 3 4 5 6 5 7 7 8 10 8 10 11 10 6 4 4 5 6 6 7 10 12 10 5 4 4 3 2 3 5 4 4 6 6 6 5 6 6 5 5
3 6 7 6 7 8 11 10 0 5 1 1 2 2 3 5 9 16 14 11 9 12 17 31 31 30 32 31 23 15 16 17 15 18 14 14 12 6 2 4 5 5 3 3 2 2 2 2 1 0 0 2 3 3 2 8 11 10 10 6 4 2 0 2 6 9 7 6 4 3 3 4 3 4 3 3 3 3 6 6 6 5 5 6 8
9 3 5 8 6 10 6 1 3 11 5 6 7 8 8 8 7 8 6 6 8 17 22 21 19 25 25 23 23 24 28 24 21 16 9 7 8 5 0 0 0 0 0 0 0 0 0 0 0 0 0 0 1 1 0 0 0 3 7 6 2 1 0 1 0 0 0 0 0 0 1 1 1 1 1 1 1 2 3 4 6 7 6 6 8
3 4 1 2 6 4 4 5 8 4 5 6 6 5 8 6 8 4 5 5 6 8 10 13 14 15 15 14 14 18 23 20 18 13 14 14 8 1 0 0 0 0 0 0 0 0 0 0 0 0 0 0 0 0 0 0 0 0 0 0 3 1 4 4 1 0 0 0 0 0 0 0 0 1 1 1 1 1 3 4 4 5 6 6 8
7 5 4 6 7 5 5 6 5 1 7 5 5 9 7 7 5 6 6 6 6 4 3 6 10 6 6 8 12 18 20 23 24 27 25 16 5 0 0 0 0 0 0 0 0 0 0 0 0 0 0 0 0 0 0 0 0 0 0 0 0 0 0 1 1 1 1 0 0 0 0 0 0 0 0 0 1 2 3 3 4 6 4 4 6
5 4 5 6 5 1 4 1 2 2 2 2 5 1 5 1 1 1 5 4 3 3 7 2 2 6 6 14 18 20 20 17 20 22 24 16 9 7 7 2 0 0 0 0 0 0 0 0 0 0 0 0 0 0 0 0 0 0 0 0 1 0 0 0 0 0 0 0 0 0 0 0 0 0 1 0 0 0 2 2 2 2 3 4 4
Wind_Speed
11 11 14 17 19 17 17 16 13 14 14 14 13 12 12 11 10 10 12 12 12 12 12 12 11 11 12 12 10 9 8 7 7 7 6 6 6 6 7 8 7 7 7 8 9 8 8 9 10 10 10 9 8 8 10 10 10 10 10 9 8 8 8 7 6 4 5 6 5 3 4 6 4 6 5 3 2 3 4 6 7 9 10 12 12
14 14 14 16 18 17 16 16 14 13 13 14 14 14 14 13 12 14 13 12 13 12 12 12 13 12 13 12 12 11 9 7 7 7 6 6 6 7 7 7 8 8 8 8 8 8 8 8 9 9 9 8 8 7 7 9 10 10 9 9 8 7 7 9 8 9 6 9 7 6 7 9 7 7 7 4 2 4 4 3 6 9 9 11 12
18 16 13 13 15 16 16 16 15 14 13 15 14 15 16 15 15 14 13 13 14 13 12 12 13 13 13 13 12 12 10 9 8 7 6 7 7 7 8 8 8 8 9 8 8 9 9 8 8 9 10 10 9 8 9 8 9 9 7 9 8 7 9 10 11 9 8 7 10 9 8 8 10 7 7 8 6 7 6 4 4 5 8 10 10
18 18 16 13 12 15 17 18 16 15 14 14 14 15 16 16 17 16 14 15 14 14 14 13 14 13 12 13 13 12 12 11 10 9 8 8 9 8 9 9 9 9 9 9 9 9 8 8 7 8 8 8 9 9 10 10 10 9 9 9 9 7 9 11 10 11 10 10 10 10 9 9 8 9 8 7 7 6 7 5 4 5 6 8 10
21 19 17 16 15 16 18 18 17 15 14 14 14 15 15 16 17 16 15 15 14 14 14 15 14 14 12 12 12 12 12 12 12 12 12 12 11 11 11 11 11 10 10 10 9 10 9 8 7 8 8 8 8 9 8 9 10 11 10 10 9 9 10 11 10 11 11 8 8 9 10 10 9 9 9 7 6 7 5 4 5 4 4 8 10
24 22 20 19 19 18 18 18 18 18 17 17 15 15 16 16 17 17 16 15 14 14 13 14 14 13 13 12 12 11 12 12 12 12 13 14 14 13 13 13 12 12 11 11 11 12 11 9 9 9 10 8 7 8 9 9 10 10 10 10 10 11 10 10 11 11 11 9 10 8 11 9 10 9 9 10 9 7 4 3 4 6 8 7 9
29 25 22 20 20 19 18 18 20 22 22 21 20 18 16 16 17 17 17 16 15 14 14 14 14 14 13 13 13 12 12 12 12 12 13 14 13 14 13 14 14 13 13 12 12 12 12 11 11 11 10 10 9 9 10 10 10 10 9 9 10 11 11 10 10 11 10 10 11 11 9 10 12 9 10 11 11 11 8 5 5 6 9 10 7
31 29 25 22 21 20 21 23 24 25 26 25 23 20 19 20 21 21 21 18 16 16 16 15 15 14 13 14 13 14 14 13 13 13 13 13 13 13 13 13 13 13 13 12 12 12 12 12 12 12 12 11 11 10 11 10 12 11 10 12 11 12 10 10 11 10 10 10 10 8 12 11 13 12 12 13 11 11 12 11 8 5 4 8 10
24 25 25 23 22 23 25 24 24 25 26 26 25 23 22 21 21 22 24 23 22 20 19 18 18 16 15 15 15 15 15 14 14 13 12 12 12 11 11 11 12 12 12 12 13 12 13 13 13 13 13 10 10 10 11 13 14 12 11 14 13 13 11 11 10 10 9 10 8 10 11 11 11 12 10 12 11 9 12 14 10 9 8 6 4
27 28 27 26 28 29 28 26 24 25 25 24 24 25 25 24 24 24 25 25 25 24 23 22 21 19 18 16 16 16 16 16 13 9 10 11 11 10 11 11 11 12 12 12 12 13 13 14 13 9 8 8 9 9 9 10 12 15 14 15 15 15 14 13 12 12 12 10 9 10 10 10 12 13 13 14 14 14 12 12 11 9 12 9 8
33 36 35 35 35 34 31 28 27 25 25 25 25 25 26 27 26 25 25 26 26 26 25 24 22 22 21 19 17 16 16 16 11 9 7 6 10 12 11 10 12 11 12 12 11 11 13 14 15 12 12 12 12 9 10 10 11 12 11 12 16 18 16 15 14 15 14 13 12 13 13 12 13 15 15 14 17 16 14 15 13 14 13 11 7
29 31 33 36 38 38 35 32 30 28 28 28 26 25 26 27 27 27 27 27 26 27 27 25 24 24 23 22 20 19 18 15 12 11 10 8 10 13 14 13 13 13 12 12 12 13 12 13 15 16 16 15 15 16 14 11 11 11 11 11 11 13 16 18 16 16 17 15 14 14 16 15 14 18 17 20 16 17 17 17 16 15 12 10 11
28 29 31 33 34 34 33 34 33 33 32 32 31 31 30 29 29 29 28 29 30 28 27 28 28 28 26 24 23 21 21 17 15 15 15 14 12 14 17 17 16 16 15 15 15 15 15 15 15 16 17 14 15 17 18 17 14 12 12 11 11 11 12 13 15 17 17 17 15 14 18 17 15 16 22 22 22 19 18 18 18 17 14 11 10
28 30 32 32 32 33 34 32 33 34 35 36 36 35 35 34 33 32 33 34 33 32 32 32 32 32 33 31 28 27 24 23 19 17 17 16 16 18 19 18 18 18 17 17 18 17 18 18 17 17 18 18 19 19 19 19 19 19 18 19 18 16 14 13 13 13 15 17 16 14 15 22 16 16 19 25 22 18 16 14 17 16 13 11 12
28 27 29 30 31 31 30 32 35 37 39 39 39 39 37 38 39 38 37 37 36 35 33 33 33 33 33 33 33 33 34 40 37 31 23 20 19 21 22 21 21 20 19 20 19 19 20 20 19 17 17 18 19 19 20 20 21 20 20 19 19 19 19 20 21 21 21 20 17 15 14 18 18 16 17 23 22 19 18 16 16 17 15 15 15
29 27 24 24 26 25 25 30 33 35 36 37 37 38 38 40 42 41 40 40 39 38 36 35 34 33 32 33 32 31 32 36 35 34 32 29 26 27 25 25 23 22 21 21 22 22 22 21 20 19 19 19 17 16 18 22 23 21 19 19 nan nan nan 19 19 21 22 22 21 18 17 16 17 18 19 20 22 21 21 22 21 20 19 17 14
32 31 30 27 24 21 20 24 28 31 33 33 32 33 34 37 40 42 44 42 41 41 39 38 34 34 34 36 36 33 32 32 33 33 33 34 33 30 29 27 26 25 24 26 26 25 24 24 23 22 21 21 18 18 19 22 24 21 20 19 20 nan nan nan nan nan nan nan 18 16 14 13 12 12 14 16 19 24 26 22 18 21 19 16 17
33 34 34 32 32 30 28 26 25 23 24 27 28 30 31 33 36 36 39 39 39 38 37 34 34 36 39 39 38 36 33 30 30 30 30 30 30 31 30 29 28 27 27 28 27 26 24 20 21 23 22 21 20 22 22 27 25 21 21 20 19 18 nan nan 26 26 nan nan nan 15 14 13 13 12 13 15 17 26 27 20 20 26 22 22 19
33 33 34 35 35 34 32 31 30 25 22 23 25 27 29 32 33 35 36 37 38 37 36 34 33 36 36 35 39 38 34 32 32 31 32 31 31 31 32 31 29 29 29 29 29 28 28 28 26 25 25 24 24 24 24 27 25 22 21 22 19 17 18 nan 29 27 27 28 26 nan 22 18 19 20 19 16 18 26 28 23 24 28 23 21 22
32 33 34 35 36 37 35 33 32 29 26 25 26 28 27 27 27 27 30 32 34 34 35 35 33 35 37 38 37 35 34 34 36 33 29 27 29 31 32 32 30 30 31 29 29 29 29 30 30 29 27 28 28 28 28 29 27 24 25 23 21 18 27 nan 30 29 nan 28 27 28 24 24 24 24 23 23 24 28 28 28 27 29 27 23 23
35 35 36 36 36 36 36 35 33 31 30 30 29 30 30 28 25 23 23 25 26 27 29 30 31 34 36 38 36 34 36 39 39 38 32 30 30 33 32 31 31 31 31 31 30 30 30 30 32 32 36 37 35 34 35 34 33 30 28 26 25 27 nan 28 28 27 28 27 27 27 26 27 26 26 25 25 25 28 31 31 30 31 30 26 25
nan 37 38 37 36 36 36 36 35 33 32 34 35 35 34 33 31 28 25 24 23 21 19 21 27 32 35 38 37 38 41 45 42 44 47 43 38 36 34 32 32 32 32 31 30 29 29 29 31 31 31 33 32 32 31 32 34 34 31 29 26 27 29 29 28 29 28 27 27 26 26 28 28 27 27 27 27 29 31 31 31 31 31 30 28
nan nan nan nan nan nan nan nan 38 36 38 38 38 38 37 39 39 37 35 32 28 24 21 18 21 25 29 31 33 35 35 34 35 36 39 38 36 38 35 33 34 33 31 31 30 30 30 30 30 31 35 35 33 31 29 27 31 31 28 29 30 30 31 31 31 30 29 28 28 26 26 28 28 28 29 29 30 32 31 31 32 32 31 30 29
nan nan nan nan nan nan nan nan nan nan nan nan 39 39 39 38 40 41 41 39 36 34 32 29 28 26 25 29 30 31 31 29 30 31 31 29 30 31 34 35 36 35 34 32 31 31 31 32 33 34 32 30 29 29 30 31 30 26 26 27 29 32 35 34 34 32 31 30 28 27 27 29 30 29 29 31 31 33 32 32 33 34 33 32 30
nan nan nan nan nan nan nan nan nan nan nan nan nan nan 40 39 40 40 43 44 42 40 37 36 36 36 36 33 31 30 29 27 28 28 29 32 33 32 32 33 35 36 35 33 32 32 31 29 27 28 30 29 28 29 32 32 30 29 27 27 31 36 36 36 35 36 33 30 30 29 29 29 31 31 32 33 33 34 34 33 35 35 35 34 33
nan nan nan nan nan nan nan nan nan nan nan nan nan nan nan nan nan nan nan nan nan nan nan nan nan 39 nan nan nan nan nan nan 30 30 31 32 32 32 30 29 28 27 26 25 24 24 24 24 24 26 28 31 33 35 35 35 33 32 30 31 36 36 36 37 37 37 34 32 31 29 28 30 31 32 33 34 34 32 34 34 34 34 37 37 35
nan nan nan nan nan nan nan nan nan nan nan nan nan nan nan nan nan nan nan nan nan nan nan nan nan nan nan nan nan nan nan nan nan nan nan nan nan nan nan nan 30 29 28 27 27 26 24 25 26 25 26 25 27 28 31 32 35 35 36 37 37 36 37 38 37 nan nan 34 32 30 29 30 31 32 33 35 33 32 35 36 36 34 36 39 38
nan nan nan nan nan nan nan nan nan nan nan nan nan nan nan nan nan nan nan nan nan nan nan nan nan nan nan nan nan nan nan nan nan nan nan nan nan nan nan nan nan nan nan nan nan nan nan nan nan 30 31 32 32 33 34 34 34 34 35 36 36 36 35 34 nan nan nan nan nan nan 29 30 30 31 34 35 34 33 36 39 38 35 37 41 39
nan nan nan nan nan nan nan nan nan nan nan nan nan nan nan nan nan nan nan nan nan nan nan nan nan nan nan nan nan nan nan nan nan nan nan nan nan nan nan nan nan nan nan nan nan nan nan nan nan nan nan nan nan nan nan nan nan nan nan nan 35 35 36 36 34 34 nan 34 30 nan 28 30 30 31 33 33 33 34 37 38 38 37 37 42 38
nan nan nan nan nan nan nan nan nan nan nan nan nan nan nan nan nan nan nan nan nan nan nan nan nan nan nan nan nan nan nan nan nan nan nan nan nan nan nan nan nan nan nan nan nan nan nan nan nan nan nan nan nan nan nan nan nan nan nan nan nan nan nan nan nan nan nan nan nan 30 30 31 30 30 31 30 30 32 34 36 35 37 37 37 37
nan nan nan nan nan nan nan nan nan nan nan nan nan nan nan nan nan nan nan nan nan nan nan nan nan nan nan nan nan nan nan nan nan nan nan nan nan nan nan nan nan nan nan nan nan nan nan nan nan nan nan nan nan nan nan nan nan nan nan nan nan nan nan nan nan nan nan 31 31 32 32 33 32 33 32 31 30 30 32 34 34 34 35 34 34
nan nan nan nan nan nan nan nan nan nan nan nan nan nan nan nan nan nan nan nan nan nan nan nan nan nan nan nan nan nan nan nan nan nan nan nan nan nan nan nan nan nan nan nan nan nan nan nan nan nan nan nan nan nan nan nan nan nan nan nan nan nan nan nan nan nan 34 33 33 33 34 34 35 34 34 33 32 32 32 33 35 35 34 34 33
nan nan nan nan nan nan nan nan nan nan nan nan nan nan nan nan nan nan nan nan nan nan nan nan nan nan nan nan nan nan nan nan nan nan nan nan nan nan nan nan nan nan nan nan nan nan nan nan nan nan nan nan nan nan nan nan nan nan nan nan nan nan nan nan 34 34 33 33 33 33 34 35 36 35 34 34 34 32 32 33 34 35 35 33 33
nan nan nan nan nan nan nan nan nan nan nan nan nan nan nan nan nan nan nan nan nan nan nan nan nan nan nan nan nan nan nan nan nan nan nan nan nan nan nan nan nan nan nan nan nan nan nan nan nan nan nan nan nan nan nan nan nan nan nan nan nan nan nan 38 38 36 36 35 34 34 34 35 37 36 35 34 34 34 32 32 34 36 36 34 32
nan nan nan nan nan nan nan nan nan nan nan nan nan nan nan nan nan nan nan nan nan nan nan nan nan nan nan nan nan nan nan nan nan nan nan nan nan nan nan nan nan nan nan nan nan nan nan nan nan nan nan nan nan nan nan nan nan nan nan nan nan nan nan nan nan 42 41 41 39 38 37 37 37 38 37 35 34 34 33 33 34 35 34 33 33
nan nan nan nan nan nan nan nan nan nan nan nan nan nan nan nan nan nan nan nan nan nan nan nan nan nan nan nan nan nan nan nan nan nan nan nan nan nan nan nan nan nan nan nan nan nan nan nan nan nan nan nan nan nan nan nan nan nan nan nan nan nan nan nan nan nan 51 nan 49 48 47 45 44 42 41 39 36 35 34 34 34 34 34 34 34
nan nan nan nan nan nan nan nan nan nan nan nan nan nan nan nan nan nan nan nan nan nan nan nan nan nan nan nan nan nan nan nan nan nan nan nan nan nan nan nan nan nan nan nan nan nan nan nan nan nan nan nan nan nan nan nan nan nan nan nan nan nan nan nan nan nan nan nan nan 52 52 50 49 48 46 44 43 41 39 39 38 35 34 32 33
nan nan nan nan nan nan nan nan nan nan nan nan nan nan nan nan nan nan nan nan nan nan nan nan nan nan nan nan nan nan nan nan nan nan nan nan nan nan nan nan nan nan nan nan nan nan nan nan nan nan nan nan nan nan nan nan nan nan nan nan nan nan nan nan nan nan nan nan nan nan nan nan nan nan 54 nan nan nan nan 42 41 39 37 36 37
nan nan nan nan nan nan nan nan nan nan nan nan nan nan nan nan nan nan nan nan nan nan nan nan nan nan nan nan nan nan nan nan nan nan nan nan nan nan nan nan nan nan nan nan nan nan nan nan nan nan nan nan nan nan nan nan nan nan nan nan nan nan nan nan nan nan nan nan nan nan nan nan nan nan nan 51 49 48 nan nan 44 43 42 41 41
nan nan nan nan nan nan nan nan nan nan nan nan nan nan nan nan nan nan nan nan nan nan nan nan nan nan nan nan nan nan nan nan nan nan nan nan nan nan nan nan nan nan nan nan nan nan nan nan nan nan nan nan nan nan nan nan nan nan nan nan nan nan nan nan nan nan nan nan nan nan nan nan nan nan nan nan nan nan nan nan nan nan nan nan nan
nan nan nan nan nan nan nan nan nan nan nan nan nan nan nan nan nan nan nan nan nan nan nan nan nan nan nan nan nan nan nan nan nan nan nan nan nan nan nan nan nan nan nan nan nan nan nan nan nan nan nan nan nan nan nan nan nan nan nan nan nan nan nan nan nan nan nan nan nan nan nan nan nan nan nan nan nan nan nan nan nan nan nan nan nan
nan nan nan nan nan nan nan nan nan nan nan nan nan nan nan nan nan nan nan nan nan nan nan nan nan nan nan nan nan nan nan nan nan nan nan nan nan nan nan nan nan nan nan nan nan nan nan nan nan nan nan nan nan nan nan nan nan nan nan nan nan nan nan nan nan nan nan nan nan nan nan nan nan nan nan nan nan nan nan nan nan nan nan nan nan
nan nan nan nan nan nan nan nan nan nan nan nan nan nan nan nan nan nan nan nan nan nan nan nan nan nan nan nan nan nan nan nan nan nan nan nan nan nan nan nan nan nan nan nan nan nan nan nan nan nan nan nan nan nan nan nan nan nan nan nan nan nan nan nan nan nan nan nan nan nan nan nan nan nan nan nan nan nan nan nan nan nan nan nan nan
nan nan nan nan nan nan nan nan nan nan nan nan nan nan nan nan nan nan nan nan nan nan nan nan nan nan nan nan nan nan nan nan nan nan nan nan nan nan nan nan nan nan nan nan nan nan nan nan nan nan nan nan nan nan nan nan nan nan nan nan nan nan nan nan nan nan nan nan nan nan nan nan nan nan nan nan nan nan nan nan nan nan nan nan nan
nan nan nan nan nan nan nan nan nan nan nan nan nan nan nan nan nan nan nan nan nan nan nan nan nan nan nan nan nan nan nan nan nan nan nan nan nan nan nan nan nan nan nan nan nan nan nan nan nan nan nan nan nan nan nan nan nan nan nan nan nan nan nan nan nan nan nan nan nan nan nan nan nan nan nan nan nan nan nan nan nan nan nan nan nan
nan nan nan nan nan nan nan nan nan nan nan nan nan nan nan nan nan nan nan nan nan nan nan nan nan nan nan nan nan nan nan nan nan nan nan nan nan nan nan nan nan nan nan nan nan nan nan nan nan nan nan nan nan nan nan nan nan nan nan nan nan nan nan nan nan nan nan nan nan nan nan nan nan nan nan nan nan nan nan nan nan nan nan nan nan
nan nan nan nan nan nan nan nan nan nan nan nan nan nan nan nan nan nan nan nan nan nan nan nan nan nan nan nan nan nan nan nan nan nan nan nan nan nan nan nan nan nan nan nan nan nan nan nan nan nan nan nan nan nan nan nan nan nan nan nan nan nan nan nan nan nan nan nan nan nan nan nan nan nan nan nan nan nan nan nan nan nan nan nan nan
nan nan nan nan nan nan nan nan nan nan nan nan nan nan nan nan nan nan nan nan nan nan nan nan nan nan nan nan nan nan nan nan nan nan nan nan nan nan nan nan nan nan nan nan nan nan nan nan nan nan nan nan nan nan nan nan nan nan nan nan nan nan nan nan nan nan nan nan nan nan nan nan nan nan nan nan nan nan nan nan nan nan nan nan nan
nan nan nan nan nan nan nan nan nan nan nan nan nan nan nan nan nan nan nan nan nan nan nan nan nan nan nan nan nan nan nan nan nan nan nan nan nan nan nan nan nan nan nan nan nan nan nan nan nan nan nan nan nan nan nan nan nan nan nan nan nan nan nan nan nan nan nan nan nan nan nan nan nan nan nan nan nan nan nan nan nan nan nan nan nan
nan nan nan nan nan nan nan nan nan nan nan nan nan nan nan nan nan nan nan nan nan nan nan nan nan nan nan nan nan nan nan nan nan nan nan nan nan nan nan nan nan nan nan nan nan nan nan nan nan nan nan nan nan nan nan nan nan nan nan nan nan nan nan nan nan nan nan nan nan nan nan nan nan nan nan nan nan nan nan nan nan nan nan nan nan
nan nan nan nan nan nan nan nan nan nan nan nan nan nan nan nan nan nan nan nan nan nan nan nan nan nan nan nan nan nan nan nan nan nan nan nan nan nan nan nan nan nan nan nan nan nan nan nan nan nan nan nan nan nan nan nan nan nan nan nan nan nan nan nan nan nan nan nan nan nan nan nan nan nan nan nan nan nan nan nan nan nan nan nan nan
Wind_Direction
240 228 221 213 211 207 207 208 210 215 219 223 226 224 220 219 217 215 218 218 221 216 204 196 194 188 186 186 186 191 195 193 202 214 220 216 214 208 206 217 218 211 213 200 208 209 199 196 193 191 207 207 200 196 203 209 224 235 237 238 237 248 249 250 257 239 242 273 278 277 263 263 275 288 267 260 246 273 305 334 344 352 357 3 7
236 228 225 225 223 218 210 207 208 211 215 220 224 224 224 222 217 217 219 215 226 226 218 208 202 196 191 186 185 186 190 193 205 219 224 226 220 218 212 218 222 219 226 216 213 220 221 212 202 198 214 219 216 216 218 220 231 232 240 245 242 243 255 255 257 258 244 254 251 248 254 278 288 289 295 292 301 298 291 310 339 350 2 5 10
248 246 242 236 235 232 224 213 210 210 211 215 219 224 225 224 223 222 218 217 222 228 228 224 215 206 197 191 186 185 185 187 201 215 222 231 231 223 221 225 226 227 230 222 222 226 224 222 212 212 217 219 223 226 235 234 238 245 242 257 257 254 266 275 267 264 264 270 286 279 282 281 296 294 302 319 321 323 322 335 3 358 353 359 10
246 247 247 246 242 239 232 223 218 212 210 211 215 220 225 226 228 226 220 217 222 224 230 231 228 221 211 202 194 187 187 187 195 204 215 226 228 226 225 225 224 226 231 231 228 234 234 229 224 227 227 225 222 226 232 238 242 244 244 253 268 261 269 277 283 280 276 272 275 293 292 291 288 303 317 318 321 315 325 353 2 360 356 355 357
239 236 241 244 237 234 230 227 223 219 216 215 212 219 223 227 230 229 226 221 219 224 225 231 234 232 227 219 209 198 194 196 196 199 207 216 222 225 226 226 225 225 226 228 232 237 236 238 232 239 239 234 227 233 236 234 238 242 242 245 257 259 258 267 274 282 283 282 276 281 285 290 303 303 307 312 300 302 303 318 341 342 345 344 339
238 234 234 239 234 234 230 228 226 224 222 218 214 216 220 224 227 228 229 224 220 223 229 233 239 241 237 231 226 214 208 207 205 204 210 216 220 222 225 227 227 226 223 224 228 234 237 236 233 241 242 239 229 235 241 242 242 244 242 241 249 256 255 252 265 272 278 285 288 267 272 278 275 286 290 296 295 288 273 301 299 309 316 314 322
230 228 227 233 235 234 229 225 226 226 226 226 221 217 219 223 228 229 230 227 222 218 221 229 235 241 240 237 233 230 223 218 215 215 218 221 224 227 229 231 232 231 228 227 228 233 238 240 239 242 243 242 237 235 236 237 244 243 247 245 247 252 250 252 256 264 271 270 270 287 282 280 289 283 281 286 292 299 305 285 279 300 304 312 309
221 219 222 229 234 234 229 225 224 225 225 225 227 224 222 228 231 232 231 228 225 220 216 219 224 234 240 242 240 238 236 230 225 224 227 232 235 235 238 239 241 240 236 234 234 237 241 244 248 252 257 257 257 252 255 248 249 244 247 254 252 255 252 252 253 258 258 265 275 271 283 281 273 283 281 275 273 278 299 308 309 286 260 290 308
236 229 226 229 231 232 232 227 226 227 227 224 223 224 220 220 225 231 233 231 224 220 219 217 215 217 225 236 241 242 244 240 237 236 235 235 242 245 250 253 254 252 248 245 244 244 243 245 247 252 258 272 287 282 281 281 271 266 259 267 265 267 264 263 268 266 269 273 264 276 279 278 286 285 279 287 298 308 295 295 297 295 289 274 279
235 228 228 226 226 228 230 228 227 228 230 229 224 222 221 219 219 225 230 229 227 226 223 219 216 213 213 219 229 240 243 242 243 257 255 247 248 250 252 257 261 263 262 257 252 254 254 253 251 257 265 270 277 287 293 296 295 288 282 277 278 276 276 274 274 280 281 279 283 280 276 283 284 289 292 293 291 287 285 294 291 286 280 290 297
233 227 220 218 218 222 226 227 228 228 228 228 226 225 223 222 221 222 227 231 231 228 229 228 224 220 216 213 216 225 235 240 251 256 261 269 252 251 255 256 259 263 266 268 265 263 260 261 259 256 254 255 256 270 281 288 292 297 301 298 293 290 285 285 285 286 287 289 287 284 289 286 286 288 290 289 288 295 298 293 297 288 291 287 279
244 241 235 231 228 225 221 224 225 225 225 225 225 226 227 226 224 224 226 229 231 232 232 231 229 227 225 221 218 218 223 230 242 248 250 250 250 245 247 248 251 255 257 261 261 259 258 258 259 259 259 261 260 256 259 266 276 283 290 294 300 305 305 298 295 289 291 295 295 299 293 295 294 290 289 287 294 294 299 297 298 300 299 301 299
237 236 233 233 235 239 237 233 226 226 225 225 225 227 230 229 228 226 226 225 229 233 235 235 234 232 231 229 225 222 222 225 233 240 244 246 249 245 240 244 245 246 248 252 253 253 252 250 247 252 253 257 258 260 262 260 263 274 280 282 284 294 303 312 311 302 292 292 294 295 299 294 294 294 293 292 290 294 293 296 297 300 305 307 306
239 240 237 232 230 233 234 232 234 228 226 225 225 228 232 232 230 228 227 227 227 228 229 230 230 230 229 228 225 223 224 223 230 237 243 249 253 255 245 248 249 250 251 252 253 254 255 254 251 247 250 252 253 254 255 258 259 259 262 267 272 274 283 295 301 304 295 289 288 291 291 290 298 294 293 293 293 296 292 293 291 292 296 306 299
242 240 239 234 232 233 235 236 231 227 224 222 225 228 230 231 230 227 226 226 227 229 231 233 234 236 235 235 232 229 229 226 223 222 228 236 240 249 243 244 245 246 249 252 253 254 255 257 256 254 251 254 258 262 259 258 257 257 258 260 265 268 272 274 277 280 283 286 289 292 289 290 295 296 292 295 303 303 299 292 286 284 281 272 270
243 244 240 234 234 234 234 234 233 233 233 229 225 230 231 231 229 227 226 224 223 224 227 232 237 241 242 243 240 236 237 235 234 235 236 237 246 249 247 246 245 244 243 246 247 249 251 254 255 253 253 252 250 257 260 257 257 257 258 259 nan nan nan 275 284 284 284 285 286 287 286 291 298 298 297 296 297 295 289 283 276 271 266 262 270
241 242 244 238 236 237 239 242 237 231 230 230 229 228 228 227 229 229 230 228 228 228 229 228 229 235 238 240 241 239 239 239 239 238 243 250 251 248 248 248 247 245 245 245 247 248 250 252 253 252 250 251 250 252 255 259 256 257 258 256 258 nan nan nan nan nan nan nan 298 299 298 295 292 294 293 293 293 289 286 282 284 279 271 262 261
237 240 241 241 241 239 237 238 239 233 227 222 223 228 229 229 232 233 239 239 239 238 238 232 229 229 229 233 237 241 245 247 249 249 251 253 248 250 251 252 250 249 245 247 250 252 254 255 258 257 254 251 249 249 251 259 261 261 261 260 259 261 nan nan 264 269 nan nan nan 294 293 288 285 283 285 292 300 292 293 296 288 280 278 276 264
233 236 237 237 238 240 242 244 244 240 232 222 219 224 234 238 236 237 238 241 241 242 243 240 236 236 237 237 237 242 243 243 243 240 238 241 247 249 250 250 249 248 247 245 247 249 250 250 247 247 248 245 239 243 247 257 264 264 264 263 262 261 258 nan 265 268 270 273 275 nan 271 276 278 279 281 291 292 290 292 294 282 281 280 277 273
236 239 239 237 236 236 240 242 241 242 243 240 235 232 230 234 236 241 244 245 242 239 240 239 235 236 239 239 240 242 242 243 247 250 247 244 244 247 248 249 249 250 250 250 249 250 251 251 253 252 249 247 245 245 247 252 260 259 260 264 262 256 251 nan 264 269 nan 272 272 273 273 270 270 271 271 271 274 281 286 287 285 284 284 280 278
240 240 241 240 238 237 238 240 240 241 243 243 242 240 236 232 232 240 247 249 252 248 242 238 235 235 240 242 239 237 238 239 239 243 247 250 248 251 252 252 253 253 252 251 252 251 251 253 254 254 252 251 251 252 256 260 267 269 268 266 264 254 nan 251 252 249 257 260 264 268 272 273 273 272 270 269 269 271 276 281 285 288 290 288 283
nan 242 242 241 240 239 239 241 244 245 246 247 246 245 242 241 240 241 246 253 256 261 259 246 238 236 239 242 238 240 239 239 243 240 238 238 243 257 254 252 252 254 255 257 256 257 259 258 257 255 252 252 252 254 257 264 271 271 273 276 267 257 259 261 258 259 261 261 262 264 265 267 269 271 272 272 271 270 273 276 282 287 290 291 290
nan nan nan nan nan nan nan nan 243 244 245 247 250 250 248 247 245 245 246 248 254 255 255 252 249 244 241 243 244 243 240 240 239 244 248 246 239 239 250 252 247 251 254 256 256 255 256 257 257 250 246 243 240 240 244 249 260 269 274 276 275 273 270 270 270 268 266 266 266 266 266 267 267 269 271 272 273 274 275 278 280 283 283 284 286
nan nan nan nan nan nan nan nan nan nan nan nan 249 250 249 250 251 250 249 250 251 250 246 245 245 246 254 258 255 250 243 240 240 236 239 240 243 242 241 246 251 253 251 253 253 253 254 255 255 248 247 245 242 241 244 249 257 255 259 265 270 272 272 273 274 274 273 273 272 271 271 273 273 271 272 273 272 275 278 279 281 283 284 283 285
nan nan nan nan nan nan nan nan nan nan nan nan nan nan 250 249 251 250 251 250 250 250 248 247 246 246 247 248 247 246 247 250 251 248 239 238 237 242 246 246 247 254 251 250 250 250 247 244 245 248 252 254 253 253 255 257 258 261 259 258 261 266 269 270 270 271 273 275 275 274 272 273 275 274 272 272 272 273 274 275 278 280 283 284 283
nan nan nan nan nan nan nan nan nan nan nan nan nan nan nan nan nan nan nan nan nan nan nan nan nan 251 nan nan nan nan nan nan 249 251 253 251 249 247 249 250 246 247 251 250 245 242 243 246 248 251 255 260 261 261 261 261 261 262 264 266 268 270 270 269 268 270 273 274 274 274 273 271 272 274 273 273 273 275 276 275 274 276 279 280 279
nan nan nan nan nan nan nan nan nan nan nan nan nan nan nan nan nan nan nan nan nan nan nan nan nan nan nan nan nan nan nan nan nan nan nan nan nan nan nan nan 251 249 249 251 248 247 244 248 252 250 254 254 258 261 260 258 260 264 268 270 272 272 272 273 273 nan nan 274 270 270 271 271 268 268 272 273 274 273 275 273 272 272 273 276 279
nan nan nan nan nan nan nan nan nan nan nan nan nan nan nan nan nan nan nan nan nan nan nan nan nan nan nan nan nan nan nan nan nan nan nan nan nan nan nan nan nan nan nan nan nan nan nan nan nan 260 259 258 259 261 263 266 267 267 268 270 271 271 272 274 nan nan nan nan nan nan 270 272 271 272 271 272 273 271 271 272 273 272 273 275 276
nan nan nan nan nan nan nan nan nan nan nan nan nan nan nan nan nan nan nan nan nan nan nan nan nan nan nan nan nan nan nan nan nan nan nan nan nan nan nan nan nan nan nan nan nan nan nan nan nan nan nan nan nan nan nan nan nan nan nan nan 268 270 271 271 271 272 nan 274 273 nan 271 270 270 271 271 271 272 272 271 272 274 275 273 277 280
nan nan nan nan nan nan nan nan nan nan nan nan nan nan nan nan nan nan nan nan nan nan nan nan nan nan nan nan nan nan nan nan nan nan nan nan nan nan nan nan nan nan nan nan nan nan nan nan nan nan nan nan nan nan nan nan nan nan nan nan nan nan nan nan nan nan nan nan nan 270 268 267 267 268 269 271 271 274 278 281 278 278 276 277 278
nan nan nan nan nan nan nan nan nan nan nan nan nan nan nan nan nan nan nan nan nan nan nan nan nan nan nan nan nan nan nan nan nan nan nan nan nan nan nan nan nan nan nan nan nan nan nan nan nan nan nan nan nan nan nan nan nan nan nan nan nan nan nan nan nan nan nan 272 272 271 268 266 266 267 268 269 271 274 276 283 285 284 284 281 279
nan nan nan nan nan nan nan nan nan nan nan nan nan nan nan nan nan nan nan nan nan nan nan nan nan nan nan nan nan nan nan nan nan nan nan nan nan nan nan nan nan nan nan nan nan nan nan nan nan nan nan nan nan nan nan nan nan nan nan nan nan nan nan nan nan nan 268 269 269 269 269 268 268 268 269 271 273 275 278 280 284 286 285 284 282
nan nan nan nan nan nan nan nan nan nan nan nan nan nan nan nan nan nan nan nan nan nan nan nan nan nan nan nan nan nan nan nan nan nan nan nan nan nan nan nan nan nan nan nan nan nan nan nan nan nan nan nan nan nan nan nan nan nan nan nan nan nan nan nan 263 264 265 267 267 266 266 266 267 269 271 273 276 278 280 281 281 282 282 281 281
nan nan nan nan nan nan nan nan nan nan nan nan nan nan nan nan nan nan nan nan nan nan nan nan nan nan nan nan nan nan nan nan nan nan nan nan nan nan nan nan nan nan nan nan nan nan nan nan nan nan nan nan nan nan nan nan nan nan nan nan nan nan nan 260 260 260 261 262 264 265 265 265 266 268 269 272 277 280 281 282 280 280 280 282 283
nan nan nan nan nan nan nan nan nan nan nan nan nan nan nan nan nan nan nan nan nan nan nan nan nan nan nan nan nan nan nan nan nan nan nan nan nan nan nan nan nan nan nan nan nan nan nan nan nan nan nan nan nan nan nan nan nan nan nan nan nan nan nan nan nan 256 256 256 258 260 262 262 263 265 267 268 271 275 279 280 279 280 281 281 280
nan nan nan nan nan nan nan nan nan nan nan nan nan nan nan nan nan nan nan nan nan nan nan nan nan nan nan nan nan nan nan nan nan nan nan nan nan nan nan nan nan nan nan nan nan nan nan nan nan nan nan nan nan nan nan nan nan nan nan nan nan nan nan nan nan nan 251 nan 251 250 251 253 255 257 260 263 265 267 269 272 274 276 278 279 278
nan nan nan nan nan nan nan nan nan nan nan nan nan nan nan nan nan nan nan nan nan nan nan nan nan nan nan nan nan nan nan nan nan nan nan nan nan nan nan nan nan nan nan nan nan nan nan nan nan nan nan nan nan nan nan nan nan nan nan nan nan nan nan nan nan nan nan nan nan 251 251 251 251 252 254 257 260 262 264 265 267 270 273 275 276
nan nan nan nan nan nan nan nan nan nan nan nan nan nan nan nan nan nan nan nan nan nan nan nan nan nan nan nan nan nan nan nan nan nan nan nan nan nan nan nan nan nan nan nan nan nan nan nan nan nan nan nan nan nan nan nan nan nan nan nan nan nan nan nan nan nan nan nan nan nan nan nan nan nan 253 nan nan nan nan 262 265 267 269 273 277
nan nan nan nan nan nan nan nan nan nan nan nan nan nan nan nan nan nan nan nan nan nan nan nan nan nan nan nan nan nan nan nan nan nan nan nan nan nan nan nan nan nan nan nan nan nan nan nan nan nan nan nan nan nan nan nan nan nan nan nan nan nan nan nan nan nan nan nan nan nan nan nan nan nan nan 256 256 256 nan nan 260 263 266 267 269
nan nan nan nan nan nan nan nan nan nan nan nan nan nan nan nan nan nan nan nan nan nan nan nan nan nan nan nan nan nan nan nan nan nan nan nan nan nan nan nan nan nan nan nan nan nan nan nan nan nan nan nan nan nan nan nan nan nan nan nan nan nan nan nan nan nan nan nan nan nan nan nan nan nan nan nan nan nan nan nan nan nan nan nan nan
nan nan nan nan nan nan nan nan nan nan nan nan nan nan nan nan nan nan nan nan nan nan nan nan nan nan nan nan nan nan nan nan nan nan nan nan nan nan nan nan nan nan nan nan nan nan nan nan nan nan nan nan nan nan nan nan nan nan nan nan nan nan nan nan nan nan nan nan nan nan nan nan nan nan nan nan nan nan nan nan nan nan nan nan nan
nan nan nan nan nan nan nan nan nan nan nan nan nan nan nan nan nan nan nan nan nan nan nan nan nan nan nan nan nan nan nan nan nan nan nan nan nan nan nan nan nan nan nan nan nan nan nan nan nan nan nan nan nan nan nan nan nan nan nan nan nan nan nan nan nan nan nan nan nan nan nan nan nan nan nan nan nan nan nan nan nan nan nan nan nan
nan nan nan nan nan nan nan nan nan nan nan nan nan nan nan nan nan nan nan nan nan nan nan nan nan nan nan nan nan nan nan nan nan nan nan nan nan nan nan nan nan nan nan nan nan nan nan nan nan nan nan nan nan nan nan nan nan nan nan nan nan nan nan nan nan nan nan nan nan nan nan nan nan nan nan nan nan nan nan nan nan nan nan nan nan
nan nan nan nan nan nan nan nan nan nan nan nan nan nan nan nan nan nan nan nan nan nan nan nan nan nan nan nan nan nan nan nan nan nan nan nan nan nan nan nan nan nan nan nan nan nan nan nan nan nan nan nan nan nan nan nan nan nan nan nan nan nan nan nan nan nan nan nan nan nan nan nan nan nan nan nan nan nan nan nan nan nan nan nan nan
nan nan nan nan nan nan nan nan nan nan nan nan nan nan nan nan nan nan nan nan nan nan nan nan nan nan nan nan nan nan nan nan nan nan nan nan nan nan nan nan nan nan nan nan nan nan nan nan nan nan nan nan nan nan nan nan nan nan nan nan nan nan nan nan nan nan nan nan nan nan nan nan nan nan nan nan nan nan nan nan nan nan nan nan nan
nan nan nan nan nan nan nan nan nan nan nan nan nan nan nan nan nan nan nan nan nan nan nan nan nan nan nan nan nan nan nan nan nan nan nan nan nan nan nan nan nan nan nan nan nan nan nan nan nan nan nan nan nan nan nan nan nan nan nan nan nan nan nan nan nan nan nan nan nan nan nan nan nan nan nan nan nan nan nan nan nan nan nan nan nan
nan nan nan nan nan nan nan nan nan nan nan nan nan nan nan nan nan nan nan nan nan nan nan nan nan nan nan nan nan nan nan nan nan nan nan nan nan nan nan nan nan nan nan nan nan nan nan nan nan nan nan nan nan nan nan nan nan nan nan nan nan nan nan nan nan nan nan nan nan nan nan nan nan nan nan nan nan nan nan nan nan nan nan nan nan
nan nan nan nan nan nan nan nan nan nan nan nan nan nan nan nan nan nan nan nan nan nan nan nan nan nan nan nan nan nan nan nan nan nan nan nan nan nan nan nan nan nan nan nan nan nan nan nan nan nan nan nan nan nan nan nan nan nan nan nan nan nan nan nan nan nan nan nan nan nan nan nan nan nan nan nan nan nan nan nan nan nan nan nan nan
nan nan nan nan nan nan nan nan nan nan nan nan nan nan nan nan nan nan nan nan nan nan nan nan nan nan nan nan nan nan nan nan nan nan nan nan nan nan nan nan nan nan nan nan nan nan nan nan nan nan nan nan nan nan nan nan nan nan nan nan nan nan nan nan nan nan nan nan nan nan nan nan nan nan nan nan nan nan nan nan nan nan nan nan nan
nan nan nan nan nan nan nan nan nan nan nan nan nan nan nan nan nan nan nan nan nan nan nan nan nan nan nan nan nan nan nan nan nan nan nan nan nan nan nan nan nan nan nan nan nan nan nan nan nan nan nan nan nan nan nan nan nan nan nan nan nan nan nan nan nan nan nan nan nan nan nan nan nan nan nan nan nan nan nan nan nan nan nan nan nan
nan nan nan nan nan nan nan nan nan nan nan nan nan nan nan nan nan nan nan nan nan nan nan nan nan nan nan nan nan nan nan nan nan nan nan nan nan nan nan nan nan nan nan nan nan nan nan nan nan nan nan nan nan nan nan nan nan nan nan nan nan nan nan nan nan nan nan nan nan nan nan nan nan nan nan nan nan nan nan nan nan nan nan nan nan